SJ-11-08

Satellite information

Favourite Embed

Satellite Type and Status

PAYLOADIN ORBIT

Key statistics

Satellite SJ-11-08 at a glance.

Uptime

3906

Days in orbit

Revolutions

≈ 14.7

Per day

Orbit

SSO

Sun Synchronous Orbit

Inclination

98.3

Latest

Satellite identification and parameters

Extended collection of information and parameters for SJ-11-08.

Object identification

Identified? True

Debris? False

Object name: SJ-11-08

International designator: 2014-066A

Object number (NORAD): 40286

Object ID (CCSDS): 40286

Country: PEOPLES REPUBLIC OF CHINA (PRC)

Current information (Y/N): Y

RCS size: LARGE

Orbital parameters

Period: 98.262 minutes

Inclination: 98.3036 deg

SMA: 7053.723 km

Apoapsis: 683.49 km

Periapsis: 667.686 km

RAAN: 322.9964 deg

Eccentricy: 0.0011203

Argument of periapsis: 231.1244 deg

Mean anomaly: 128.896 deg

Mean motion: 14.65464076 rev/day

Mean motion (dot): 0.00000482 rev/day2

B* drag term: 0.0000983 1/REarth

Two-line elements (TLE)

Creation date: July 6, 2025, 10:36 p.m.

Reference frame: TEME

Reference center: EARTH

Epoch: July 6, 2025, 8:32 p.m. UTC

TLE line 0: 0 SJ-11-08

TLE line 1: 1 40286U 14066A 25187.85583109 .00000482 00000-0 98300-4 0 9997

TLE line 2: 2 40286 98.3036 322.9964 0011203 231.1244 128.8960 14.65464076570638

Live tracking on map

Real-time ground track for satellite SJ-11-08.

In-orbit conjunctions

There are no conjunctions computed for SJ-11-08, at the moment. Check back to stay up to date, as we update our databases every day.

Go to all conjunctions

Associated space launch

SJ-11-08 was lifted into orbit during the mission ‘Long March 2C | Shijian 11-08’, on board a Long March 2 space rocket.

The launch took place on Oct. 27, 2014, 6:59 a.m. from Launch Area 4 (SLS-2 / 603).

For more information about the launch, click the button.

Launch to space Long March 2C | Shijian 11-08
Long March 2C | Shijian 11-08

Agency: N/A

Status: Launch Successful

Launch date: Oct. 27, 2014, 6:59 a.m. UTC

Rocket: Long March 2

Launch pad: Launch Area 4 (SLS-2 / 603)

Location: Jiuquan Satellite Launch Center, People's Republic of China

...

Latest news about this satellite

There are no fresh news available about this satellite. Check back as we update our databases every day.


Newsletter sign-up

Weekly statistics, charts and insights to help you stay on top of the space industry.